N0TKN Weather Reports


time (UTC)temp
F
wind
direction
speed
knots
gust
knots
rain 1hr
in
rain 24hr
in
rain mn
in
humidity
%
barometer
mb
20260508043517 58 198 1.7 4.3 0.00 0.00 0.00 62 1012.9
20260508042517 58 157 0.9 3.5 0.00 0.00 0.00 62 1013.1
20260508041517 58 167 2.6 7.8 0.00 0.00 0.00 61 1012.9
20260508040518 58 185 2.6 5.2 0.00 0.00 0.00 61 1013.0
20260508035518 58 189 1.7 5.2 0.00 0.00 0.00 62 1013.1
20260508034518 58 170 1.7 3.5 0.00 0.00 0.00 61 1013.1
20260508033518 59 172 1.7 3.5 0.00 0.00 0.00 60 1013.0
20260508032518 59 185 1.7 4.3 0.00 0.00 0.00 60 1013.0
20260508031515 59 170 2.6 5.2 0.00 0.00 0.00 59 1012.9
20260508030518 59 167 1.7 5.2 0.00 0.00 0.00 59 1013.0
20260508025516 60 166 1.7 3.5 0.00 0.00 0.00 57 1013.0
20260508024516 60 164 1.7 4.3 0.00 0.00 0.00 56 1012.9
20260508023516 61 185 1.7 5.2 0.00 0.00 0.00 56 1012.8
20260508022516 61 185 2.6 6.1 0.00 0.00 0.00 55 1012.7
20260508021517 61 179 2.6 5.2 0.00 0.00 0.00 56 1012.8
20260508020517 62 182 2.6 4.3 0.00 0.00 0.00 54 1012.6
20260508015517 62 193 1.7 3.5 0.00 0.00 0.00 53 1012.6
20260508014517 62 192 1.7 4.3 0.00 0.00 0.00 52 1012.5
20260508013519 63 194 1.7 2.6 0.00 0.00 0.00 51 1012.7
20260508012517 63 186 0.9 2.6 0.00 0.00 0.00 51 1012.6
20260508011518 63 195 0.9 2.6 0.00 0.00 0.00 51 1012.7
20260508010517 63 210 0.0 1.7 0.00 0.00 0.00 51 1012.8
20260508005517 64 236 0.9 2.6 0.00 0.00 0.00 49 1012.7
20260508004517 65 204 0.9 4.3 0.00 0.00 0.00 48 1012.5
20260508003518 65 252 0.9 3.5 0.00 0.00 0.00 47 1012.4
20260508002518 66 208 1.7 3.5 0.00 0.00 0.00 46 1012.2
20260508001515 66 200 1.7 4.3 0.00 0.00 0.00 44 1011.9
20260508000515 66 201 1.7 5.2 0.00 0.00 0.00 43 1011.9
20260507235516 67 195 3.5 10.4 0.00 0.00 0.00 43 1012.0
20260507234515 67 209 2.6 7.0 0.00 0.00 0.00 43 1011.8
20260507233516 67 201 2.6 7.0 0.00 0.00 0.00 42 1012.0
20260507232516 67 189 1.7 4.3 0.00 0.00 0.00 42 1012.2
20260507231516 68 266 1.7 5.2 0.00 0.00 0.00 42 1012.2
20260507230516 68 195 3.5 7.8 0.00 0.00 0.00 41 1012.2
20260507225516 69 239 1.7 5.2 0.00 0.00 0.00 40 1011.7
20260507224516 69 254 2.6 6.1 0.00 0.00 0.00 40 1011.9
20260507223517 68 214 2.6 6.1 0.00 0.00 0.00 40 1011.9
20260507222517 68 239 2.6 6.1 0.00 0.00 0.00 40 1012.3
20260507221517 68 191 4.3 9.6 0.00 0.00 0.00 41 1012.0
20260507220517 69 195 4.3 9.6 0.00 0.00 0.00 40 1012.2
20260507215517 69 207 3.5 9.6 0.00 0.00 0.00 40 1011.9
20260507214518 70 204 2.6 7.0 0.00 0.00 0.00 39 1012.2
20260507213518 69 238 2.6 5.2 0.00 0.00 0.00 39 1011.7
20260507212518 69 225 2.6 7.0 0.00 0.00 0.00 39 1011.9
20260507211515 68 264 3.5 5.2 0.00 0.00 0.00 40 1011.6
20260507210515 68 211 2.6 7.8 0.00 0.00 0.00 40 1011.9
20260507205518 67 238 1.7 5.2 0.00 0.00 0.00 41 1012.5
20260507204516 68 238 3.5 9.6 0.00 0.00 0.00 40 1013.2
20260507203516 68 206 4.3 10.4 0.00 0.00 0.00 40 1012.2
20260507202516 67 253 1.7 6.1 0.00 0.00 0.00 41 1013.2
20260507201516 68 266 1.7 4.3 0.00 0.00 0.00 40 1013.5
20260507200516 66 176 2.6 6.1 0.00 0.00 0.00 41 1013.1
20260507195516 67 195 3.5 7.0 0.00 0.00 0.00 40 1013.8
20260507194517 67 233 3.5 11.3 0.00 0.00 0.00 40 1013.0
20260507193517 67 209 3.5 6.1 0.00 0.00 0.00 38 1013.7
20260507192517 67 209 4.3 11.3 0.00 0.00 0.00 39 1014.2
20260507191517 67 210 4.3 14.8 0.00 0.00 0.00 39 1013.1
20260507190517 67 197 4.3 10.4 0.00 0.00 0.00 40 1013.6
20260507185517 67 194 4.3 10.4 0.00 0.00 0.00 38 1013.3
20260507184518 67 189 4.3 9.6 0.00 0.00 0.00 38 1013.5
20260507183518 66 201 2.6 7.0 0.00 0.00 0.00 40 1013.6
20260507182518 66 196 3.5 8.7 0.00 0.00 0.00 39 1013.7
20260507181518 66 205 3.5 8.7 0.00 0.00 0.00 38 1013.6
20260507180518 66 199 4.3 9.6 0.00 0.00 0.00 38 1014.3
20260507175515 66 260 3.5 9.6 0.00 0.00 0.00 39 1014.5
20260507174515 65 185 3.5 9.6 0.00 0.00 0.00 38 1014.0
20260507173516 64 211 5.2 10.4 0.00 0.00 0.00 39 1014.4
20260507172516 65 222 2.6 7.0 0.00 0.00 0.00 39 1014.3
20260507171516 64 205 3.5 7.8 0.00 0.00 0.00 40 1014.6
20260507170516 64 193 4.3 10.4 0.00 0.00 0.00 40 1014.7
20260507165516 64 223 3.5 9.6 0.00 0.00 0.00 41 1014.8
20260507164516 65 239 3.5 8.7 0.00 0.00 0.00 41 1014.7
20260507163516 64 259 2.6 6.1 0.00 0.00 0.00 41 1014.8
20260507162517 63 194 4.3 7.8 0.00 0.00 0.00 41 1014.9
20260507161517 63 236 1.7 5.2 0.00 0.00 0.00 41 1014.8
20260507160517 62 207 3.5 11.3 0.00 0.00 0.00 42 1015.1
20260507155517 62 184 2.6 6.1 0.00 0.00 0.00 44 1014.9
20260507154518 61 197 5.2 12.2 0.00 0.00 0.00 43 1015.3
20260507153517 61 202 3.5 8.7 0.00 0.00 0.00 45 1015.1
20260507152518 61 189 2.6 6.1 0.00 0.00 0.00 46 1015.1
20260507151518 60 201 3.5 9.6 0.00 0.00 0.00 46 1015.1
20260507150518 59 202 4.3 9.6 0.00 0.00 0.00 48 1015.1
20260507145515 58 194 3.5 7.0 0.00 0.00 0.00 50 1015.4
20260507144515 58 193 4.3 10.4 0.00 0.00 0.00 53 1015.2
20260507143516 57 182 3.5 9.6 0.00 0.00 0.00 54 1015.1
20260507142516 57 197 2.6 7.8 0.00 0.00 0.00 55 1015.8
20260507141516 57 174 2.6 5.2 0.00 0.00 0.00 57 1016.0
20260507140516 57 175 1.7 6.1 0.00 0.00 0.00 58 1016.0
20260507135516 57 155 1.7 4.3 0.00 0.00 0.00 68 1015.8
20260507134517 54 69 0.9 1.7 0.00 0.00 0.00 77 1015.9
20260507133516 52 76 0.9 2.6 0.00 0.00 0.00 81 1016.2
20260507132517 51 62 0.9 2.6 0.00 0.00 0.00 81 1016.3
20260507131517 51 70 0.9 2.6 0.00 0.00 0.00 81 1016.4
20260507130517 49 112 0.9 1.7 0.00 0.00 0.00 84 1016.6
20260507125517 47 78 0.0 0.9 0.00 0.00 0.00 92 1016.6
20260507124517 46 68 0.9 2.6 0.00 0.00 0.00 98 1016.7
20260507123517 45 53 0.9 1.7 0.00 0.00 0.00 99 1016.6
20260507122517 43 103 0.0 1.7 0.00 0.00 0.00 99 1016.7
20260507121517 42 0.0 0.0 0.00 0.00 0.00 99 1016.9
20260507120518 40 115 0.0 1.7 0.00 0.00 0.00 99 1017.2
20260507115516 40 0.0 0.0 0.00 0.00 0.00 99 1017.4
20260507114516 40 120 0.0 0.0 0.00 0.00 0.00 99 1017.6
20260507113516 40 0.0 0.0 0.00 0.00 0.00 99 1017.6
20260507112516 40 55 0.0 0.9 0.00 0.00 0.00 99 1017.4
20260507111516 40 254 0.0 1.7 0.00 0.00 0.00 99 1017.2
20260507110515 41 182 0.0 0.9 0.00 0.00 0.00 99 1017.3
20260507105515 40 214 0.0 0.9 0.00 0.00 0.00 99 1017.2
20260507104516 41 193 0.0 0.9 0.00 0.00 0.00 99 1017.1
20260507103516 40 229 0.0 0.9 0.00 0.00 0.00 99 1017.3
20260507102516 40 170 0.0 0.9 0.00 0.00 0.00 99 1017.3
20260507101517 41 181 0.0 0.9 0.00 0.00 0.00 99 1017.3
20260507100516 41 167 0.0 0.9 0.00 0.00 0.00 99 1017.2
20260507095516 42 205 0.0 0.9 0.00 0.00 0.00 99 1017.2
20260507094516 42 186 0.0 0.9 0.00 0.00 0.00 99 1017.2
20260507093517 42 144 0.0 0.9 0.00 0.00 0.00 99 1017.0
20260507092517 42 130 0.0 0.9 0.00 0.00 0.00 99 1016.9
20260507091517 42 112 0.0 0.0 0.00 0.01 0.00 99 1016.9
20260507090517 42 118 0.0 0.9 0.00 0.01 0.00 99 1016.7
20260507085518 42 111 0.0 1.7 0.00 0.01 0.00 100 1016.7
20260507084518 42 150 0.0 0.9 0.00 0.01 0.00 100 1016.7
20260507083518 42 117 0.0 0.9 0.00 0.01 0.00 100 1016.8
20260507082518 41 159 0.0 0.9 0.00 0.01 0.00 100 1016.8
20260507081518 41 150 0.0 0.9 0.00 0.01 0.00 99 1016.9
20260507080518 41 191 0.0 0.9 0.00 0.02 0.00 100 1017.0
20260507075515 41 5 0.0 0.0 0.00 0.03 0.00 100 1016.9
20260507074515 40 0.0 0.0 0.00 0.06 0.00 99 1017.0
20260507073516 40 0.0 0.0 0.00 0.07 0.00 99 1017.1
20260507072516 40 218 0.0 0.0 0.00 0.09 0.00 99 1017.6
20260507071516 40 0.0 0.0 0.00 0.09 0.00 98 1017.9
20260507070516 41 0.0 0.0 0.00 0.09 0.00 98 1017.8
20260507065516 41 248 0.0 0.9 0.00 0.09 0.00 98 1017.9
20260507064516 41 0.0 0.0 0.00 0.09 0.00 97 1018.0
20260507063516 41 315 0.0 0.9 0.00 0.09 0.00 97 1017.9
20260507062517 41 130 0.0 0.9 0.00 0.09 0.00 96 1017.8
20260507061517 41 202 0.0 0.9 0.00 0.09 0.00 95 1017.8
20260507060517 42 358 0.0 0.0 0.00 0.09 0.00 94 1018.0
20260507055517 42 301 0.0 0.9 0.00 0.09 0.00 93 1018.1
20260507054518 42 223 0.0 0.9 0.00 0.09 0.00 93 1018.1
20260507053517 43 0.0 0.0 0.00 0.09 0.00 91 1018.2
20260507052518 43 235 0.0 0.9 0.00 0.11 0.00 91 1018.0
20260507051518 43 232 0.0 1.7 0.00 0.11 0.00 91 1018.1
20260507050518 44 210 0.0 1.7 0.00 0.11 0.00 88 1018.0
20260507045518 44 291 0.0 1.7 0.00 0.11 0.11 88 1017.9
20260507044519 44 310 0.0 0.9 0.00 0.11 0.11 88 1018.0